Retour au catalogue

STARLINK-30812

ActifCommunicationsVLEO
NORAD 58168·PAYLOAD·🇺🇸 United States

Lancé Oct 29, 2023 depuis Vandenberg Space Force Base

Loading…

Prochains Passages (prochaines 24 heures)

TLE

FraisSource: CelesTrak SupGP

Époque: Sep 15, 2026, 01:44 UTC

1 58168C 23166U   26258.07270833 -.00025201  00000+0 -74515-3 0  2583
2 58168  53.1597  58.8397 0001240  86.3963 157.4457 15.34378261    16

Suivez STARLINK-30812 en temps réel avec AllMySat

Download on the App Store